sat.trackr.live / text

‹ back to catalog

NUSAT-44 (MARIA MITCHE*)

NORAD 59122 · 2024-043AA

PAYLOAD ACTIVE UNKNOWN

§ Identity

Operator
Country
ARGN
Launch date
2024-03-04
Launch site
AFWTR
Launch vehicle
Mass (kg)
RCS (m²)

External: N2YO · Heavens-Above · Gunter

§ Orbital elements

Epoch: 2026-05-25T04:31:46.728192Z

Period
94.12 min
Inclination
97.5417°
Eccentricity
0.0005748
Mean motion
15.30026639 rev/d
Perigee alt
471.8 km
Apogee alt
479.7 km
Semi-major
6,853.9 km
B*
3.6895e-4
RAAN
285.1050°
Arg perigee
320.1824°
Mean anomaly
39.8993°
Rev number
12,375

§ Raw data

NUSAT-44 (MARIA MITCHE*)1 59122U 24043AA  26145.18873528  .00010654  00000+0  36895-3 0  99912 59122  97.5417 285.1050 0005748 320.1824  39.8993 15.30026639123753

JSON: /api/v1/satellites/59122 · /tle

For live sub-satellite position, see the globe view (requires WebGL).

§ Visibility from observer

Set your observer location to see the next 7 days of passes ≥ 10°. The values pass through the URL so the page stays shareable.

No JS? Fill the form by hand. The geolocation button needs JavaScript.